Dewpoint
59 59 60 60 60 59 60 59 59 59 59 59 59 58 57 55 53 46 38 40 44 59 54 35 30 21 21 25 23 20 17 16 13 14 15 19 20 29 32 37 44 46 49 55 56
59 59 59 60 59 60 60 59 59 58 59 59 57 56 55 54 47 43 48 57 57 59 33 33 31 29 23 21 23 20 19 17 17 16 16 15 15 17 31 29 35 46 54 55 55
59 59 60 60 60 60 59 58 57 58 58 57 56 55 54 50 45 31 53 56 56 52 35 32 31 28 25 21 21 21 21 22 20 17 16 15 14 16 18 23 32 44 53 54 53
60 59 59 60 60 60 58 57 57 56 55 55 55 55 54 48 37 35 52 53 57 43 36 28 29 27 25 22 19 20 20 20 22 20 19 18 18 16 18 21 31 45 53 52 52
59 59 59 59 60 59 57 55 54 54 54 54 55 55 47 43 39 35 57 53 39 37 30 26 28 28 25 23 22 20 20 20 22 22 21 22 20 21 20 20 29 46 50 51 51
59 59 59 59 58 56 54 53 53 53 54 54 54 54 43 39 40 40 40 38 36 31 29 28 29 29 28 26 25 24 23 22 19 19 23 23 23 23 23 23 26 31 43 46 48
59 59 59 57 54 53 53 53 53 53 53 54 54 46 42 41 42 41 36 35 34 33 32 33 34 31 30 29 27 25 22 21 20 19 20 23 22 22 23 25 23 28 33 40 46
59 59 57 53 52 52 53 53 52 52 54 54 53 46 42 43 41 35 34 34 34 34 34 35 34 34 34 32 29 26 25 22 22 20 21 21 19 21 25 23 26 27 32 35 42
59 57 52 52 52 52 52 52 51 53 54 54 50 49 42 45 37 36 39 37 36 34 34 33 33 32 33 30 28 27 22 21 20 21 20 21 20 21 23 23 24 26 27 35 41
57 53 50 52 52 52 52 50 50 52 49 48 47 44 43 37 36 36 38 38 37 38 36 35 34 31 31 28 24 23 23 22 19 19 22 20 20 21 23 23 25 25 27 35 41
54 51 50 52 52 52 48 46 42 43 43 40 38 35 32 30 33 34 35 35 36 36 35 36 31 30 28 28 27 26 25 22 21 21 21 21 20 20 20 22 23 23 27 30 41
53 51 50 52 51 52 48 44 42 42 37 35 32 31 31 32 31 30 32 31 33 31 33 33 31 31 27 25 25 23 21 20 20 20 21 20 19 19 19 20 20 21 25 29 39
52 50 50 51 51 48 46 43 42 44 39 32 30 29 29 30 28 28 28 28 30 30 30 30 30 27 26 25 23 22 21 20 18 18 17 16 14 15 15 16 17 19 21 28 36
52 49 50 50 45 43 42 43 46 49 33 26 27 28 29 30 29 27 26 27 27 26 26 27 27 25 25 22 20 19 18 16 15 16 13 13 11 15 13 12 13 16 28 30 37
52 49 49 48 48 39 44 45 47 48 26 23 23 28 27 27 26 23 26 27 26 25 24 23 26 25 23 19 18 16 16 16 17 16 17 14 11 11 13 12 25 23 27 32 35
51 50 50 46 46 43 44 49 47 38 22 18 22 23 21 23 23 21 26 29 27 22 19 17 17 16 17 15 15 15 15 15 16 17 17 15 14 14 12 18 25 29 30 31 34
51 50 48 44 44 47 49 46 33 23 12 10 15 17 18 18 19 20 21 21 21 17 16 13 12 14 17 18 19 15 16 19 18 18 16 12 8 11 13 20 22 28 28 32 35
50 49 48 43 46 47 48 38 26 16 18 15 13 14 15 10 14 17 17 14 12 10 9 14 15 9 18 19 17 17 16 18 12 14 13 12 11 10 16 19 27 24 32 32 34
50 47 48 49 48 47 42 35 22 20 17 14 12 14 12 6 16 14 15 12 12 13 18 16 12 14 17 18 16 17 18 17 18 17 16 14 13 12 23 29 29 26 30 35 34
44 45 43 51 49 44 37 32 25 23 21 21 17 12 8 7 11 17 15 13 12 17 19 18 16 14 14 16 16 17 16 16 17 16 13 12 11 12 22 24 30 37 33 37 35
47 40 48 50 48 39 35 28 25 25 25 23 20 17 14 11 12 13 12 13 11 11 15 16 18 17 16 16 14 14 15 17 17 19 18 19 20 25 29 29 33 30 33 35 39
46 37 46 47 37 34 32 26 30 24 23 25 26 24 23 21 17 16 14 15 15 16 14 19 19 17 14 14 13 13 15 13 17 14 18 21 27 28 29 32 34 29 30 36 33
43 42 46 44 33 30 28 25 26 25 23 24 25 24 24 21 18 18 19 19 20 17 18 20 19 17 15 15 14 14 17 18 22 23 17 21 25 26 28 28 33 35 33 30 34
42 36 41 42 36 32 27 26 24 24 23 24 25 24 23 21 20 19 18 18 20 19 36 26 19 17 17 14 13 14 11 16 20 22 21 23 26 26 27 29 29 30 31 32 31
42 36 38 34 36 32 30 29 27 25 28 26 23 24 23 22 21 20 19 19 19 26 24 23 17 17 15 12 13 14 11 11 14 19 18 16 13 16 21 23 32 35 31 29 26
35 37 39 35 35 33 34 31 28 25 25 28 26 23 23 22 23 21 21 26 27 26 26 29 30 27 16 16 14 12 12 10 9 9 10 12 11 17 23 21 20 20 21 26 30
42 42 40 37 33 35 32 29 28 28 28 31 28 26 25 29 34 32 32 32 30 28 26 27 27 28 24 21 19 20 20 14 14 14 15 14 19 21 18 19 26 27 28 26 35
Lifted_Index
7 7 7 7 6 6 6 5 5 5 5 6 6 6 7 7 7 7 6 7 7 8 7 7 7 7 7 6 5 5 4 3 1 1 2 3 3 3 2 1 -1 -1 -2 -2 -2
8 8 7 7 7 6 6 6 5 6 6 6 6 7 7 7 7 7 7 7 8 8 7 7 7 7 6 6 5 5 4 3 2 2 3 3 3 3 2 1 0 -1 -2 -2 -2
8 8 8 7 7 6 6 6 6 6 6 7 7 7 7 7 6 6 7 7 7 8 7 7 7 7 6 6 5 5 4 4 3 4 4 4 3 3 3 2 1 -0 -1 -2 -1
8 8 8 7 6 6 6 6 6 6 7 7 8 8 8 7 6 6 6 6 7 7 7 7 7 6 6 5 5 5 5 4 4 4 4 4 4 4 3 3 2 -0 -1 -1 -1
8 8 7 6 6 6 6 6 6 7 7 8 8 8 8 6 5 5 6 6 6 6 7 7 7 6 6 5 5 5 5 5 4 4 4 4 4 4 4 4 3 1 -0 -1 -0
7 7 6 6 6 6 6 6 7 7 7 8 8 8 8 6 6 6 6 6 6 6 6 6 6 6 6 5 5 5 5 5 4 4 4 4 4 4 4 4 3 2 1 0 0
6 6 6 6 6 6 7 7 7 7 8 8 8 8 7 7 6 7 7 7 7 6 6 6 6 5 5 5 5 5 5 4 4 4 4 4 4 3 3 3 4 3 2 1 1
5 5 5 5 6 6 7 7 7 8 8 8 8 8 7 7 7 7 7 7 7 6 6 6 5 5 4 4 4 4 4 3 3 3 3 4 3 3 3 3 3 3 3 2 1
5 5 5 5 6 7 7 8 8 8 8 8 8 7 7 6 7 7 7 7 7 6 6 6 5 5 4 3 3 3 2 2 1 2 3 4 4 3 3 3 3 3 2 1 1
5 5 6 6 6 7 8 8 8 8 8 8 8 7 7 7 7 7 7 7 6 6 5 5 5 4 3 3 2 2 2 1 1 2 2 3 3 3 3 3 3 2 2 1 0
6 6 7 7 7 8 8 8 8 8 8 8 8 8 8 8 8 8 8 7 6 5 5 4 4 4 3 3 3 2 2 2 2 2 2 3 3 3 3 3 3 2 2 1 0
7 7 7 8 8 8 8 8 8 9 8 9 9 9 9 9 9 9 8 7 7 5 4 4 3 3 4 3 3 3 3 3 3 3 3 3 3 3 3 3 3 2 2 1 0
8 8 8 8 9 9 8 8 9 9 9 9 9 9 9 9 9 8 8 8 7 5 4 3 3 3 3 3 3 4 4 4 3 3 3 3 3 3 3 3 2 2 2 1 -0
8 8 8 9 9 9 9 9 9 8 8 8 9 9 9 9 8 8 8 7 6 5 5 4 3 3 3 3 4 4 4 4 4 3 3 3 3 3 3 2 1 1 1 0 -1
9 9 9 9 9 9 9 9 8 7 6 7 8 9 9 8 8 8 7 7 6 6 5 4 4 4 4 4 4 5 4 4 4 3 3 3 3 3 2 1 0 0 0 0 -0
10 10 11 10 9 9 8 8 7 6 5 7 8 8 8 7 7 7 7 6 6 6 6 5 5 4 5 5 5 5 4 4 3 3 2 2 2 2 1 0 0 0 0 0 0
11 11 11 10 9 8 8 7 6 6 6 7 8 8 7 7 7 6 6 6 6 6 6 5 5 4 4 5 5 4 3 3 2 1 2 2 2 1 1 0 0 0 1 1 1
11 11 10 9 9 8 7 7 6 6 7 7 8 8 7 7 7 6 6 6 6 5 5 5 4 3 3 4 4 4 3 1 1 1 2 3 2 2 1 0 0 0 1 1 1
11 10 9 9 9 8 8 7 7 7 7 7 7 7 7 7 7 6 6 6 6 5 5 5 4 3 3 3 4 4 3 2 1 1 2 2 3 2 1 0 0 0 1 1 1
10 9 9 8 9 8 8 8 7 7 7 7 7 7 6 6 6 6 6 6 6 5 5 5 4 4 4 3 3 3 3 2 1 0 1 1 1 1 0 0 0 0 0 1 1
9 9 9 9 9 9 8 8 8 7 7 7 7 6 6 6 5 5 5 5 6 6 5 5 5 5 4 4 3 3 2 1 1 0 0 0 0 0 0 -0 -0 0 0 1 1
9 9 9 9 9 9 9 8 8 8 7 7 7 7 6 6 5 5 5 5 5 5 5 5 5 5 5 4 3 2 1 0 0 0 0 -0 0 0 0 -0 -0 0 1 1 1
9 9 9 9 9 9 8 8 8 8 7 7 8 7 7 6 6 6 5 5 5 5 5 5 5 5 4 4 3 2 1 0 0 0 -0 -0 -0 0 0 -0 -0 -0 0 0 0
9 9 9 8 8 8 8 8 7 8 7 7 7 8 7 7 6 6 6 5 5 5 5 5 5 4 4 4 3 2 1 1 0 -0 -0 -0 -0 0 0 -0 -1 -1 -1 -1 -0
9 9 9 8 8 8 7 7 7 7 7 7 7 7 7 6 6 5 5 4 4 4 4 4 4 4 4 4 3 2 1 1 0 -0 -0 -0 -0 -0 -1 -1 -1 -1 -1 -1 -1
8 8 8 7 7 7 6 6 6 6 6 6 6 6 5 5 4 4 3 3 3 3 3 2 2 2 2 2 2 2 2 1 1 0 -0 -1 -1 -1 -1 -1 -1 -2 -1 -1 -1
8 7 7 7 7 6 6 6 6 5 5 5 5 5 4 4 3 3 3 2 2 2 2 1 1 1 1 1 1 1 2 1 1 0 -0 -1 -1 -1 -1 -1 -1 -2 -1 -1 -0